Volver al catálogo

COSMOS 783

ActivoMilitarLEO
NORAD 8458·PAYLOAD·🇷🇺 Russia

Lanzado Nov 28, 1975 desde Plesetsk Cosmodrome

Loading…

Próximos Pases (próximas 24 horas)

TLE

ActualizadoSource: Space-Track

Época: Sep 14, 2026, 06:10 UTC

1 08458U 75112A   26257.25740533  .00000090  00000-0  41745-4 0  9996
2 08458  74.0592 200.3441 0013333 251.9622 108.0077 14.33795382652953

Sigue COSMOS 783 en tiempo real con AllMySat

Download on the App Store